"Time","Value","Approval","myLocation"
"2023-05-07 00:00",7.6694082791084,"Approved","OW473"
"2023-05-07 01:00",7.6284053717292,"Approved","OW473"
"2023-05-07 02:00",7.59340246434999,"Approved","OW473"
"2023-05-07 03:00",7.57239955697079,"Approved","OW473"
"2023-05-07 04:00",7.56739664959158,"Approved","OW473"
"2023-05-07 05:00",7.57239374221238,"Approved","OW473"
"2023-05-07 06:00",7.58639083483317,"Approved","OW473"
"2023-05-07 07:00",7.60338792745397,"Approved","OW473"
"2023-05-07 08:00",7.61438502007476,"Approved","OW473"
"2023-05-07 09:00",7.61738211269556,"Approved","OW473"
"2023-05-07 10:00",7.60937920531635,"Approved","OW473"
"2023-05-07 11:00",7.59437629793714,"Approved","OW473"
"2023-05-07 12:00",7.57937339055794,"Approved","OW473"
"2023-05-07 13:00",7.56837048317873,"Approved","OW473"
"2023-05-07 14:00",7.57036757579953,"Approved","OW473"
"2023-05-07 15:00",7.58936466842032,"Approved","OW473"
"2023-05-07 16:00",7.62136176104112,"Approved","OW473"
"2023-05-07 17:00",7.66335885366191,"Approved","OW473"
"2023-05-07 18:00",7.71335594628271,"Approved","OW473"
"2023-05-07 19:00",7.7583530389035,"Approved","OW473"
"2023-05-07 20:00",7.7913501315243,"Approved","OW473"
"2023-05-07 21:00",7.80334722414509,"Approved","OW473"
"2023-05-07 22:00",7.79134431676589,"Approved","OW473"
"2023-05-07 23:00",7.76534140938668,"Approved","OW473"
"2023-05-08 00:00",7.72233850200748,"Approved","OW473"
"2023-05-08 01:00",7.67533559462827,"Approved","OW473"
"2023-05-08 02:00",7.63333268724907,"Approved","OW473"
"2023-05-08 03:00",7.59832977986986,"Approved","OW473"
"2023-05-08 04:00",7.58132687249065,"Approved","OW473"
"2023-05-08 05:00",7.57732396511145,"Approved","OW473"
"2023-05-08 06:00",7.58232105773224,"Approved","OW473"
"2023-05-08 07:00",7.59531815035304,"Approved","OW473"
"2023-05-08 08:00",7.60931524297383,"Approved","OW473"
"2023-05-08 09:00",7.61731233559463,"Approved","OW473"
"2023-05-08 10:00",7.61730942821542,"Approved","OW473"
"2023-05-08 11:00",7.60930652083622,"Approved","OW473"
"2023-05-08 12:00",7.59630361345701,"Approved","OW473"
"2023-05-08 13:00",7.58530070607781,"Approved","OW473"
"2023-05-08 14:00",7.5802977986986,"Approved","OW473"
"2023-05-08 15:00",7.5892948913194,"Approved","OW473"
"2023-05-08 16:00",7.61329198394019,"Approved","OW473"
"2023-05-08 17:00",7.64728907656099,"Approved","OW473"
"2023-05-08 18:00",7.69328616918178,"Approved","OW473"
"2023-05-08 19:00",7.74128326180258,"Approved","OW473"
"2023-05-08 20:00",7.78128035442337,"Approved","OW473"
"2023-05-08 21:00",7.80727744704416,"Approved","OW473"
"2023-05-08 22:00",7.81027453966496,"Approved","OW473"
"2023-05-08 23:00",7.79327163228575,"Approved","OW473"
"2023-05-09 00:00",7.76126872490655,"Approved","OW473"
"2023-05-09 01:00",7.71826581752734,"Approved","OW473"
"2023-05-09 02:00",7.67226291014814,"Approved","OW473"
"2023-05-09 03:00",7.63326000276893,"Approved","OW473"
"2023-05-09 04:00",7.60325709538973,"Approved","OW473"
"2023-05-09 05:00",7.58825418801052,"Approved","OW473"
"2023-05-09 06:00",7.58525128063132,"Approved","OW473"
"2023-05-09 07:00",7.59224837325211,"Approved","OW473"
"2023-05-09 08:00",7.60524546587291,"Approved","OW473"
"2023-05-09 09:00",7.6182425584937,"Approved","OW473"
"2023-05-09 10:00",7.6272396511145,"Approved","OW473"
"2023-05-09 11:00",7.62923674373529,"Approved","OW473"
"2023-05-09 12:00",7.62323383635608,"Approved","OW473"
"2023-05-09 13:00",7.61623092897688,"Approved","OW473"
"2023-05-09 14:00",7.61022802159767,"Approved","OW473"
"2023-05-09 15:00",7.61322511421847,"Approved","OW473"
"2023-05-09 16:00",7.62822220683926,"Approved","OW473"
"2023-05-09 17:00",7.65521929946006,"Approved","OW473"
"2023-05-09 18:00",7.69521639208085,"Approved","OW473"
"2023-05-09 19:00",7.74121348470165,"Approved","OW473"
"2023-05-09 20:00",7.78521057732244,"Approved","OW473"
"2023-05-09 21:00",7.82120766994324,"Approved","OW473"
"2023-05-09 22:00",7.84220476256403,"Approved","OW473"
"2023-05-09 23:00",7.83920185518483,"Approved","OW473"
"2023-05-10 00:00",7.81919894780562,"Approved","OW473"
"2023-05-10 01:00",7.78519604042642,"Approved","OW473"
"2023-05-10 02:00",7.74119313304721,"Approved","OW473"
"2023-05-10 03:00",7.695190225668,"Approved","OW473"
"2023-05-10 04:00",7.6581873182888,"Approved","OW473"
"2023-05-10 05:00",7.63018441090959,"Approved","OW473"
"2023-05-10 06:00",7.61518150353039,"Approved","OW473"
"2023-05-10 07:00",7.61217859615118,"Approved","OW473"
"2023-05-10 08:00",7.61817568877198,"Approved","OW473"
"2023-05-10 09:00",7.62917278139277,"Approved","OW473"
"2023-05-10 10:00",7.64116987401357,"Approved","OW473"
"2023-05-10 11:00",7.64816696663436,"Approved","OW473"
"2023-05-10 12:00",7.65116405925516,"Approved","OW473"
"2023-05-10 13:00",7.64516115187595,"Approved","OW473"
"2023-05-10 14:00",7.64015824449675,"Approved","OW473"
"2023-05-10 15:00",7.63815533711754,"Approved","OW473"
"2023-05-10 16:00",7.64315242973834,"Approved","OW473"
"2023-05-10 17:00",7.65814952235913,"Approved","OW473"
"2023-05-10 18:00",7.68614661497993,"Approved","OW473"
"2023-05-10 19:00",7.72314370760072,"Approved","OW473"
"2023-05-10 20:00",7.76314080022151,"Approved","OW473"
"2023-05-10 21:00",7.80213789284231,"Approved","OW473"
"2023-05-10 22:00",7.8331349854631,"Approved","OW473"
"2023-05-10 23:00",7.8481320780839,"Approved","OW473"
"2023-05-11 00:00",7.84312917070469,"Approved","OW473"
"2023-05-11 01:00",7.82312626332549,"Approved","OW473"
"2023-05-11 02:00",7.78912335594628,"Approved","OW473"
"2023-05-11 03:00",7.74912044856708,"Approved","OW473"
"2023-05-11 04:00",7.70711754118787,"Approved","OW473"
"2023-05-11 05:00",7.67311463380867,"Approved","OW473"
"2023-05-11 06:00",7.64811172642946,"Approved","OW473"
"2023-05-11 07:00",7.63610881905026,"Approved","OW473"
"2023-05-11 08:00",7.63410591167105,"Approved","OW473"
"2023-05-11 09:00",7.64110300429185,"Approved","OW473"
"2023-05-11 10:00",7.65510009691264,"Approved","OW473"
"2023-05-11 11:00",7.66909718953343,"Approved","OW473"
"2023-05-11 12:00",7.68209428215423,"Approved","OW473"
"2023-05-11 13:00",7.68809137477502,"Approved","OW473"
"2023-05-11 14:00",7.68808846739582,"Approved","OW473"
"2023-05-11 15:00",7.68808556001661,"Approved","OW473"
"2023-05-11 16:00",7.68808265263741,"Approved","OW473"
"2023-05-11 17:00",7.6940797452582,"Approved","OW473"
"2023-05-11 18:00",7.710076837879,"Approved","OW473"
"2023-05-11 19:00",7.73407393049979,"Approved","OW473"
"2023-05-11 20:00",7.76507102312059,"Approved","OW473"
"2023-05-11 21:00",7.80006811574138,"Approved","OW473"
"2023-05-11 22:00",7.83506520836218,"Approved","OW473"
"2023-05-11 23:00",7.86006230098297,"Approved","OW473"
"2023-05-12 00:00",7.87205939360377,"Approved","OW473"
"2023-05-12 01:00",7.86705648622456,"Approved","OW473"
"2023-05-12 02:00",7.84805357884535,"Approved","OW473"
"2023-05-12 03:00",7.81605067146615,"Approved","OW473"
"2023-05-12 04:00",7.77904776408695,"Approved","OW473"
"2023-05-12 05:00",7.73904485670774,"Approved","OW473"
"2023-05-12 06:00",7.70404194932853,"Approved","OW473"
"2023-05-12 07:00",7.68003904194933,"Approved","OW473"
"2023-05-12 08:00",7.66903613457012,"Approved","OW473"
"2023-05-12 09:00",7.67003322719092,"Approved","OW473"
"2023-05-12 10:00",7.68103031981171,"Approved","OW473"
"2023-05-12 11:00",7.69802741243251,"Approved","OW473"
"2023-05-12 12:00",7.7170245050533,"Approved","OW473"
"2023-05-12 13:00",7.7320215976741,"Approved","OW473"
"2023-05-12 14:00",7.74301869029489,"Approved","OW473"
"2023-05-12 15:00",7.74601578291569,"Approved","OW473"
"2023-05-12 16:00",7.74701287553648,"Approved","OW473"
"2023-05-12 17:00",7.74700996815728,"Approved","OW473"
"2023-05-12 18:00",7.75000706077807,"Approved","OW473"
"2023-05-12 19:00",7.75900415339886,"Approved","OW473"
"2023-05-12 20:00",7.77600124601966,"Approved","OW473"
"2023-05-12 21:00",7.79999833864045,"Approved","OW473"
"2023-05-12 22:00",7.82899543126125,"Approved","OW473"
"2023-05-12 23:00",7.85799252388204,"Approved","OW473"
"2023-05-13 00:00",7.88098961650284,"Approved","OW473"
"2023-05-13 01:00",7.89398670912363,"Approved","OW473"
"2023-05-13 02:00",7.89098380174443,"Approved","OW473"
"2023-05-13 03:00",7.87498089436522,"Approved","OW473"
"2023-05-13 04:00",7.84897798698602,"Approved","OW473"
"2023-05-13 05:00",7.81397507960681,"Approved","OW473"
"2023-05-13 06:00",7.77697217222761,"Approved","OW473"
"2023-05-13 07:00",7.7439692648484,"Approved","OW473"
"2023-05-13 08:00",7.7209663574692,"Approved","OW473"
"2023-05-13 09:00",7.71196345008999,"Approved","OW473"
"2023-05-13 10:00",7.71496054271079,"Approved","OW473"
"2023-05-13 11:00",7.72895763533158,"Approved","OW473"
"2023-05-13 12:00",7.74995472795237,"Approved","OW473"
"2023-05-13 13:00",7.77295182057317,"Approved","OW473"
"2023-05-13 14:00",7.79394891319396,"Approved","OW473"
"2023-05-13 15:00",7.80794600581476,"Approved","OW473"
"2023-05-13 16:00",7.81194309843555,"Approved","OW473"
"2023-05-13 17:00",7.81094019105635,"Approved","OW473"
"2023-05-13 18:00",7.80593728367714,"Approved","OW473"
"2023-05-13 19:00",7.80093437629794,"Approved","OW473"
"2023-05-13 20:00",7.80193146891873,"Approved","OW473"
"2023-05-13 21:00",7.80892856153953,"Approved","OW473"
"2023-05-13 22:00",7.82592565416032,"Approved","OW473"
"2023-05-13 23:00",7.84592274678112,"Approved","OW473"
"2023-05-14 00:00",7.86991983940191,"Approved","OW473"
"2023-05-14 01:00",7.89091693202271,"Approved","OW473"
"2023-05-14 02:00",7.9029140246435,"Approved","OW473"
"2023-05-14 03:00",7.90091111726429,"Approved","OW473"
"2023-05-14 04:00",7.88590820988509,"Approved","OW473"
"2023-05-14 05:00",7.86190530250588,"Approved","OW473"
"2023-05-14 06:00",7.82790239512668,"Approved","OW473"
"2023-05-14 07:00",7.79289948774747,"Approved","OW473"
"2023-05-14 08:00",7.76189658036827,"Approved","OW473"
"2023-05-14 09:00",7.74089367298906,"Approved","OW473"
"2023-05-14 10:00",7.73389076560986,"Approved","OW473"
"2023-05-14 11:00",7.74088785823065,"Approved","OW473"
"2023-05-14 12:00",7.75888495085145,"Approved","OW473"
"2023-05-14 13:00",7.78388204347224,"Approved","OW473"
"2023-05-14 14:00",7.81087913609304,"Approved","OW473"
"2023-05-14 15:00",7.83387622871383,"Approved","OW473"
"2023-05-14 16:00",7.84787332133463,"Approved","OW473"
"2023-05-14 17:00",7.84987041395542,"Approved","OW473"
"2023-05-14 18:00",7.84086750657621,"Approved","OW473"
"2023-05-14 19:00",7.82886459919701,"Approved","OW473"
"2023-05-14 20:00",7.8148616918178,"Approved","OW473"
"2023-05-14 21:00",7.8068587844386,"Approved","OW473"
"2023-05-14 22:00",7.80585587705939,"Approved","OW473"
"2023-05-14 23:00",7.81585296968019,"Approved","OW473"
"2023-05-15 00:00",7.83185006230098,"Approved","OW473"
"2023-05-15 01:00",7.85284715492178,"Approved","OW473"
"2023-05-15 02:00",7.87284424754257,"Approved","OW473"
"2023-05-15 03:00",7.88684134016337,"Approved","OW473"
"2023-05-15 04:00",7.88883843278416,"Approved","OW473"
"2023-05-15 05:00",7.87783552540496,"Approved","OW473"
"2023-05-15 06:00",7.85683261802575,"Approved","OW473"
"2023-05-15 07:00",7.82582971064655,"Approved","OW473"
"2023-05-15 08:00",7.79182680326734,"Approved","OW473"
"2023-05-15 09:00",7.76582389588814,"Approved","OW473"
"2023-05-15 10:00",7.74982098850893,"Approved","OW473"
"2023-05-15 11:00",7.74881808112972,"Approved","OW473"
"2023-05-15 12:00",7.76581517375052,"Approved","OW473"
"2023-05-15 13:00",7.79081226637131,"Approved","OW473"
"2023-05-15 14:00",7.82480935899211,"Approved","OW473"
"2023-05-15 15:00",7.8578064516129,"Approved","OW473"
"2023-05-15 16:00",7.8838035442337,"Approved","OW473"
"2023-05-15 17:00",7.89780063685449,"Approved","OW473"
"2023-05-15 18:00",7.89579772947529,"Approved","OW473"
"2023-05-15 19:00",7.88379482209608,"Approved","OW473"
"2023-05-15 20:00",7.86379191471688,"Approved","OW473"
"2023-05-15 21:00",7.84178900733767,"Approved","OW473"
"2023-05-15 22:00",7.82478609995847,"Approved","OW473"
"2023-05-15 23:00",7.81678319257926,"Approved","OW473"
"2023-05-16 00:00",7.81978028520006,"Approved","OW473"
"2023-05-16 01:00",7.83277737782085,"Approved","OW473"
"2023-05-16 02:00",7.85177447044164,"Approved","OW473"
"2023-05-16 03:00",7.87277156306244,"Approved","OW473"
"2023-05-16 04:00",7.88876865568323,"Approved","OW473"
"2023-05-16 05:00",7.89376574830403,"Approved","OW473"
"2023-05-16 06:00",7.88276284092482,"Approved","OW473"
"2023-05-16 07:00",7.86275993354562,"Approved","OW473"
"2023-05-16 08:00",7.84275702616641,"Approved","OW473"
"2023-05-16 09:00",7.81675411878721,"Approved","OW473"
"2023-05-16 10:00",7.796751211408,"Approved","OW473"
"2023-05-16 11:00",7.7907483040288,"Approved","OW473"
"2023-05-16 12:00",7.80074539664959,"Approved","OW473"
"2023-05-16 13:00",7.82474248927039,"Approved","OW473"
"2023-05-16 14:00",7.85973958189118,"Approved","OW473"
"2023-05-16 15:00",7.90173667451197,"Approved","OW473"
"2023-05-16 16:00",7.94173376713277,"Approved","OW473"
"2023-05-16 17:00",7.96873085975357,"Approved","OW473"
"2023-05-16 18:00",7.97872795237436,"Approved","OW473"
"2023-05-16 19:00",7.97172504499516,"Approved","OW473"
"2023-05-16 20:00",7.95172213761595,"Approved","OW473"
"2023-05-16 21:00",7.92271923023674,"Approved","OW473"
"2023-05-16 22:00",7.89171632285754,"Approved","OW473"
"2023-05-16 23:00",7.86571341547833,"Approved","OW473"
"2023-05-17 00:00",7.85171050809913,"Approved","OW473"
"2023-05-17 01:00",7.85370760071992,"Approved","OW473"
"2023-05-17 02:00",7.86570469334072,"Approved","OW473"
"2023-05-17 03:00",7.88470178596151,"Approved","OW473"
"2023-05-17 04:00",7.90469887858231,"Approved","OW473"
"2023-05-17 05:00",7.9196959712031,"Approved","OW473"
"2023-05-17 06:00",7.9226930638239,"Approved","OW473"
"2023-05-17 07:00",7.90869015644469,"Approved","OW473"
"2023-05-17 08:00",7.88768724906549,"Approved","OW473"
"2023-05-17 09:00",7.86268434168628,"Approved","OW473"
"2023-05-17 10:00",7.83968143430707,"Approved","OW473"
"2023-05-17 11:00",7.82667852692787,"Approved","OW473"
"2023-05-17 12:00",7.82867561954866,"Approved","OW473"
"2023-05-17 13:00",7.84767271216946,"Approved","OW473"
"2023-05-17 14:00",7.87866980479025,"Approved","OW473"
"2023-05-17 15:00",7.91966689741105,"Approved","OW473"
"2023-05-17 16:00",7.96266399003184,"Approved","OW473"
"2023-05-17 17:00",7.99966108265264,"Approved","OW473"
"2023-05-17 18:00",8.02165817527343,"Approved","OW473"
"2023-05-17 19:00",8.02265526789423,"Approved","OW473"
"2023-05-17 20:00",8.00665236051502,"Approved","OW473"
"2023-05-17 21:00",7.97764945313582,"Approved","OW473"
"2023-05-17 22:00",7.93964654575661,"Approved","OW473"
"2023-05-17 23:00",7.90164363837741,"Approved","OW473"
"2023-05-18 00:00",7.8726407309982,"Approved","OW473"
"2023-05-18 01:00",7.85663782361899,"Approved","OW473"
"2023-05-18 02:00",7.85663491623979,"Approved","OW473"
"2023-05-18 03:00",7.86663200886058,"Approved","OW473"
"2023-05-18 04:00",7.88562910148138,"Approved","OW473"
"2023-05-18 05:00",7.90462619410217,"Approved","OW473"
"2023-05-18 06:00",7.91762328672297,"Approved","OW473"
"2023-05-18 07:00",7.91762037934376,"Approved","OW473"
"2023-05-18 08:00",7.90561747196456,"Approved","OW473"
"2023-05-18 09:00",7.88861456458535,"Approved","OW473"
"2023-05-18 10:00",7.86661165720615,"Approved","OW473"
"2023-05-18 11:00",7.84960874982694,"Approved","OW473"
"2023-05-18 12:00",7.84660584244774,"Approved","OW473"
"2023-05-18 13:00",7.85960293506853,"Approved","OW473"
"2023-05-18 14:00",7.88760002768933,"Approved","OW473"
"2023-05-18 15:00",7.92759712031012,"Approved","OW473"
"2023-05-18 16:00",7.97559421293092,"Approved","OW473"
"2023-05-18 17:00",8.02159130555171,"Approved","OW473"
"2023-05-18 18:00",8.0575883981725,"Approved","OW473"
"2023-05-18 19:00",8.0735854907933,"Approved","OW473"
"2023-05-18 20:00",8.0675825834141,"Approved","OW473"
"2023-05-18 21:00",8.04557967603489,"Approved","OW473"
"2023-05-18 22:00",8.01157676865568,"Approved","OW473"
"2023-05-18 23:00",7.96957386127648,"Approved","OW473"
"2023-05-19 00:00",7.93057095389727,"Approved","OW473"
"2023-05-19 01:00",7.90256804651807,"Approved","OW473"
"2023-05-19 02:00",7.89056513913886,"Approved","OW473"
"2023-05-19 03:00",7.89256223175966,"Approved","OW473"
"2023-05-19 04:00",7.90655932438045,"Approved","OW473"
"2023-05-19 05:00",7.92655641700125,"Approved","OW473"
"2023-05-19 06:00",7.94655350962204,"Approved","OW473"
"2023-05-19 07:00",7.95755060224283,"Approved","OW473"
"2023-05-19 08:00",7.95754769486363,"Approved","OW473"
"2023-05-19 09:00",7.94854478748443,"Approved","OW473"
"2023-05-19 10:00",7.93454188010522,"Approved","OW473"
"2023-05-19 11:00",7.91953897272601,"Approved","OW473"
"2023-05-19 12:00",7.91253606534681,"Approved","OW473"
"2023-05-19 13:00",7.9195331579676,"Approved","OW473"
"2023-05-19 14:00",7.9445302505884,"Approved","OW473"
"2023-05-19 15:00",7.98052734320919,"Approved","OW473"
"2023-05-19 16:00",8.02652443582999,"Approved","OW473"
"2023-05-19 17:00",8.07452152845078,"Approved","OW473"
"2023-05-19 18:00",8.11751862107158,"Approved","OW473"
"2023-05-19 19:00",8.14551571369237,"Approved","OW473"
"2023-05-19 20:00",8.15051280631317,"Approved","OW473"
"2023-05-19 21:00",8.13450989893396,"Approved","OW473"
"2023-05-19 22:00",8.10550699155475,"Approved","OW473"
"2023-05-19 23:00",8.06050408417555,"Approved","OW473"
"2023-05-20 00:00",8.01350117679635,"Approved","OW473"
"2023-05-20 01:00",7.97149826941714,"Approved","OW473"
"2023-05-20 02:00",7.94249536203793,"Approved","OW473"
"2023-05-20 03:00",7.93049245465873,"Approved","OW473"
"2023-05-20 04:00",7.93448954727952,"Approved","OW473"
"2023-05-20 05:00",7.94748663990032,"Approved","OW473"
"2023-05-20 06:00",7.96548373252111,"Approved","OW473"
"2023-05-20 07:00",7.98248082514191,"Approved","OW473"
"2023-05-20 08:00",7.9924779177627,"Approved","OW473"
"2023-05-20 09:00",7.9914750103835,"Approved","OW473"
"2023-05-20 10:00",7.98247210300429,"Approved","OW473"
"2023-05-20 11:00",7.97146919562509,"Approved","OW473"
"2023-05-20 12:00",7.96346628824588,"Approved","OW473"
"2023-05-20 13:00",7.96346338086668,"Approved","OW473"
"2023-05-20 14:00",7.97946047348747,"Approved","OW473"
"2023-05-20 15:00",8.01045756610826,"Approved","OW473"
"2023-05-20 16:00",8.04945465872906,"Approved","OW473"
"2023-05-20 17:00",8.09545175134985,"Approved","OW473"
"2023-05-20 18:00",8.14144884397065,"Approved","OW473"
"2023-05-20 19:00",8.17844593659144,"Approved","OW473"
"2023-05-20 20:00",8.19744302921224,"Approved","OW473"
"2023-05-20 21:00",8.19244012183303,"Approved","OW473"
"2023-05-20 22:00",8.16943721445383,"Approved","OW473"
"2023-05-20 23:00",8.13143430707462,"Approved","OW473"
"2023-05-21 00:00",8.08443139969542,"Approved","OW473"
"2023-05-21 01:00",8.03742849231621,"Approved","OW473"
"2023-05-21 02:00",7.99942558493701,"Approved","OW473"
"2023-05-21 03:00",7.9764226775578,"Approved","OW473"
"2023-05-21 04:00",7.9684197701786,"Approved","OW473"
"2023-05-21 05:00",7.97341686279939,"Approved","OW473"
"2023-05-21 06:00",7.98741395542019,"Approved","OW473"
"2023-05-21 07:00",8.00441104804098,"Approved","OW473"
"2023-05-21 08:00",8.01940814066178,"Approved","OW473"
"2023-05-21 09:00",8.02640523328257,"Approved","OW473"
"2023-05-21 10:00",8.02440232590336,"Approved","OW473"
"2023-05-21 11:00",8.01739941852416,"Approved","OW473"
"2023-05-21 12:00",8.01139651114495,"Approved","OW473"
"2023-05-21 13:00",8.00839360376575,"Approved","OW473"
"2023-05-21 14:00",8.01639069638654,"Approved","OW473"
"2023-05-21 15:00",8.03838778900734,"Approved","OW473"
"2023-05-21 16:00",8.07238488162813,"Approved","OW473"
"2023-05-21 17:00",8.11338197424893,"Approved","OW473"
"2023-05-21 18:00",8.15937906686972,"Approved","OW473"
"2023-05-21 19:00",8.20137615949052,"Approved","OW473"
"2023-05-21 20:00",8.23137325211131,"Approved","OW473"
"2023-05-21 21:00",8.24137034473211,"Approved","OW473"
"2023-05-21 22:00",8.2283674373529,"Approved","OW473"
"2023-05-21 23:00",8.2023645299737,"Approved","OW473"
"2023-05-22 00:00",8.16036162259449,"Approved","OW473"
"2023-05-22 01:00",8.11335871521528,"Approved","OW473"
"2023-05-22 02:00",8.06835580783608,"Approved","OW473"
"2023-05-22 03:00",8.03735290045687,"Approved","OW473"
"2023-05-22 04:00",8.01834999307767,"Approved","OW473"
"2023-05-22 05:00",8.01434708569846,"Approved","OW473"
"2023-05-22 06:00",8.02134417831926,"Approved","OW473"
"2023-05-22 07:00",8.03534127094005,"Approved","OW473"
"2023-05-22 08:00",8.05033836356085,"Approved","OW473"
"2023-05-22 09:00",8.06233545618164,"Approved","OW473"
"2023-05-22 10:00",8.06733254880244,"Approved","OW473"
"2023-05-22 11:00",8.06332964142323,"Approved","OW473"
"2023-05-22 12:00",8.05732673404403,"Approved","OW473"
"2023-05-22 13:00",8.05132382666482,"Approved","OW473"
"2023-05-22 14:00",8.05332091928562,"Approved","OW473"
"2023-05-22 15:00",8.06431801190641,"Approved","OW473"
"2023-05-22 16:00",8.0913151045272,"Approved","OW473"
"2023-05-22 17:00",8.125312197148,"Approved","OW473"
"2023-05-22 18:00",8.16530928976879,"Approved","OW473"
"2023-05-22 19:00",8.21030638238959,"Approved","OW473"
"2023-05-22 20:00",8.24730347501038,"Approved","OW473"
"2023-05-22 21:00",8.27030056763118,"Approved","OW473"
"2023-05-22 22:00",8.27129766025197,"Approved","OW473"
"2023-05-22 23:00",8.25729475287277,"Approved","OW473"
"2023-05-23 00:00",8.22729184549356,"Approved","OW473"
"2023-05-23 01:00",8.18528893811436,"Approved","OW473"
"2023-05-23 02:00",8.14228603073515,"Approved","OW473"
"2023-05-23 03:00",8.10328312335595,"Approved","OW473"
"2023-05-23 04:00",8.07528021597674,"Approved","OW473"
"2023-05-23 05:00",8.06227730859753,"Approved","OW473"
"2023-05-23 06:00",8.06227440121833,"Approved","OW473"
"2023-05-23 07:00",8.07027149383912,"Approved","OW473"
"2023-05-23 08:00",8.08426858645992,"Approved","OW473"
"2023-05-23 09:00",8.09826567908071,"Approved","OW473"
"2023-05-23 10:00",8.10726277170151,"Approved","OW473"
"2023-05-23 11:00",8.1112598643223,"Approved","OW473"
"2023-05-23 12:00",8.1092569569431,"Approved","OW473"
"2023-05-23 13:00",8.10625404956389,"Approved","OW473"
"2023-05-23 14:00",8.10525114218469,"Approved","OW473"
"2023-05-23 15:00",8.11024823480548,"Approved","OW473"
"2023-05-23 16:00",8.12524532742628,"Approved","OW473"
"2023-05-23 17:00",8.15224242004707,"Approved","OW473"
"2023-05-23 18:00",8.18423951266787,"Approved","OW473"
"2023-05-23 19:00",8.22323660528866,"Approved","OW473"
"2023-05-23 20:00",8.26123369790946,"Approved","OW473"
"2023-05-23 21:00",8.28823079053025,"Approved","OW473"
"2023-05-23 22:00",8.30122788315105,"Approved","OW473"
"2023-05-23 23:00",8.29522497577184,"Approved","OW473"
"2023-05-24 00:00",8.27522206839263,"Approved","OW473"
"2023-05-24 01:00",8.24221916101343,"Approved","OW473"
"2023-05-24 02:00",8.20321625363422,"Approved","OW473"
"2023-05-24 03:00",8.16421334625502,"Approved","OW473"
"2023-05-24 04:00",8.13221043887581,"Approved","OW473"
"2023-05-24 05:00",8.11120753149661,"Approved","OW473"
"2023-05-24 06:00",8.1022046241174,"Approved","OW473"
"2023-05-24 07:00",8.1022017167382,"Approved","OW473"
"2023-05-24 08:00",8.11219880935899,"Approved","OW473"
"2023-05-24 09:00",8.12519590197979,"Approved","OW473"
"2023-05-24 10:00",8.13819299460058,"Approved","OW473"
"2023-05-24 11:00",8.14619008722138,"Approved","OW473"
"2023-05-24 12:00",8.15018717984217,"Approved","OW473"
"2023-05-24 13:00",8.15018427246297,"Approved","OW473"
"2023-05-24 14:00",8.15118136508376,"Approved","OW473"
"2023-05-24 15:00",8.15117845770455,"Approved","OW473"
"2023-05-24 16:00",8.15817555032535,"Approved","OW473"
"2023-05-24 17:00",8.17517264294614,"Approved","OW473"
"2023-05-24 18:00",8.20116973556694,"Approved","OW473"
"2023-05-24 19:00",8.23216682818773,"Approved","OW473"